• En España
  • Lista de países
  • Para 7 días
  • Temperatura del agua
  • Mapa Satelital
  • El tiempo en el mapa
  • Informadores
  • user-avatar
    Iniciar sesión

    Tiempo cada hora Luanda

    Hoy, 23 Septiembre, Sábado

    Tiempo Temperatura Precipitaciones Viento Presión Humedad
    00:00 +26°C° 0,3 mm 2 mps 755 mmHg 80%
    01:00 +26°C° 0 mm 3 mps 755 mmHg 78%
    02:00 +26°C° 0 mm 3 mps 755 mmHg 78%
    03:00 +26°C° 0 mm 3 mps 755 mmHg 78%
    04:00 +26°C° 0 mm 2 mps 754 mmHg 77%
    05:00 +26°C° 0 mm 2 mps 755 mmHg 77%
    06:00 +26°C° 0 mm 2 mps 755 mmHg 77%
    07:00 +26°C° 0 mm 1 mps 755 mmHg 76%
    08:00 +27°C° 0 mm 1 mps 755 mmHg 71%
    09:00 +28°C° 0 mm 1 mps 755 mmHg 66%
    10:00 +29°C° 0 mm 1 mps 756 mmHg 61%
    11:00 +30°C° 0 mm 2 mps 755 mmHg 56%
    12:00 +33°C° 0 mm 3 mps 754 mmHg 51%
    13:00 +34°C° 0 mm 3 mps 754 mmHg 46%
    14:00 +33°C° 0 mm 4 mps 753 mmHg 50%
    15:00 +32°C° 0 mm 4 mps 753 mmHg 53%
    16:00 +30°C° 0 mm 5 mps 752 mmHg 57%
    17:00 +29°C° 0 mm 4 mps 753 mmHg 63%
    18:00 +28°C° 0 mm 4 mps 753 mmHg 69%
    19:00 +26°C° 0 mm 3 mps 754 mmHg 75%
    20:00 +26°C° 0 mm 3 mps 754 mmHg 76%
    21:00 +26°C° 0 mm 4 mps 755 mmHg 77%
    22:00 +26°C° 0 mm 4 mps 756 mmHg 79%
    23:00 +26°C° 0 mm 3 mps 756 mmHg 79%

    Mañana, 24 Septiembre, Domingo

    Tiempo Temperatura Precipitaciones Viento Presión Humedad
    00:00 +26°C° 0 mm 3 mps 756 mmHg 79%
    01:00 +26°C° 0 mm 2 mps 755 mmHg 80%
    02:00 +26°C° 0,1 mm 2 mps 755 mmHg 80%
    03:00 +26°C° 0,1 mm 2 mps 755 mmHg 80%
    04:00 +25°C° 0,1 mm 2 mps 755 mmHg 80%
    05:00 +25°C° 0,1 mm 2 mps 755 mmHg 80%
    06:00 +25°C° 0,1 mm 2 mps 756 mmHg 79%
    07:00 +26°C° 0,1 mm 2 mps 756 mmHg 79%
    08:00 +27°C° 0 mm 2 mps 756 mmHg 72%
    09:00 +28°C° 0 mm 2 mps 756 mmHg 65%
    10:00 +30°C° 0 mm 2 mps 757 mmHg 57%
    11:00 +31°C° 0 mm 2 mps 756 mmHg 54%
    12:00 +33°C° 0 mm 3 mps 755 mmHg 50%
    13:00 +34°C° 0 mm 4 mps 754 mmHg 46%
    14:00 +33°C° 0 mm 4 mps 753 mmHg 50%
    15:00 +32°C° 0 mm 4 mps 753 mmHg 53%
    16:00 +30°C° 0 mm 5 mps 752 mmHg 56%
    17:00 +29°C° 0 mm 5 mps 753 mmHg 62%
    18:00 +28°C° 0 mm 4 mps 753 mmHg 68%
    19:00 +26°C° 0 mm 4 mps 754 mmHg 75%
    20:00 +26°C° 0 mm 4 mps 754 mmHg 76%
    21:00 +26°C° 0 mm 4 mps 755 mmHg 78%
    22:00 +26°C° 0 mm 3 mps 756 mmHg 79%
    23:00 +26°C° 0 mm 3 mps 755 mmHg 80%

    Pasado mañana, 25 Septiembre, Lunes

    Tiempo Temperatura Precipitaciones Viento Presión Humedad
    00:00 +26°C° 0 mm 3 mps 755 mmHg 81%
    01:00 +25°C° 0 mm 2 mps 755 mmHg 82%
    02:00 +25°C° 0,1 mm 2 mps 755 mmHg 81%
    03:00 +25°C° 0,1 mm 3 mps 754 mmHg 81%
    04:00 +25°C° 0,1 mm 3 mps 754 mmHg 81%
    05:00 +25°C° 0,1 mm 3 mps 755 mmHg 80%
    06:00 +25°C° 0,1 mm 2 mps 755 mmHg 79%
    07:00 +26°C° 0,1 mm 2 mps 756 mmHg 79%
    08:00 +27°C° 0 mm 2 mps 756 mmHg 72%
    09:00 +28°C° 0 mm 2 mps 756 mmHg 65%
    10:00 +30°C° 0 mm 2 mps 756 mmHg 58%
    11:00 +31°C° 0 mm 3 mps 755 mmHg 54%
    12:00 +33°C° 0 mm 3 mps 755 mmHg 50%
    13:00 +34°C° 0 mm 3 mps 754 mmHg 47%
    14:00 +33°C° 0 mm 4 mps 753 mmHg 49%
    15:00 +32°C° 0 mm 4 mps 753 mmHg 52%
    16:00 +32°C° 0 mm 5 mps 752 mmHg 54%
    17:00 +29°C° 0 mm 4 mps 752 mmHg 60%
    18:00 +28°C° 0 mm 4 mps 753 mmHg 66%
    19:00 +26°C° 0 mm 3 mps 753 mmHg 73%
    20:00 +26°C° 0 mm 3 mps 754 mmHg 74%
    21:00 +26°C° 0 mm 3 mps 754 mmHg 75%
    22:00 +26°C° 0 mm 3 mps 755 mmHg 76%
    23:00 +26°C° 0 mm 3 mps 754 mmHg 77%

    26 Septiembre, Martes

    Tiempo Temperatura Precipitaciones Viento Presión Humedad
    00:00 +26°C° 0 mm 3 mps 754 mmHg 78%
    01:00 +25°C° 0 mm 3 mps 754 mmHg 78%
    02:00 +25°C° 0 mm 3 mps 754 mmHg 79%
    03:00 +25°C° 0 mm 3 mps 754 mmHg 80%
    04:00 +25°C° 0 mm 3 mps 754 mmHg 81%
    05:00 +25°C° 0,1 mm 3 mps 754 mmHg 80%
    06:00 +25°C° 0,1 mm 2 mps 755 mmHg 79%
    07:00 +25°C° 0,1 mm 2 mps 755 mmHg 78%
    08:00 +27°C° 0 mm 2 mps 755 mmHg 71%
    09:00 +28°C° 0 mm 2 mps 755 mmHg 64%
    10:00 +29°C° 0 mm 2 mps 756 mmHg 57%
    11:00 +30°C° 0 mm 3 mps 755 mmHg 54%
    12:00 +31°C° 0 mm 3 mps 754 mmHg 50%
    13:00 +34°C° 0 mm 4 mps 753 mmHg 46%
    14:00 +33°C° 0 mm 4 mps 752 mmHg 49%
    15:00 +32°C° 0 mm 4 mps 752 mmHg 51%
    16:00 +32°C° 0 mm 5 mps 751 mmHg 53%
    17:00 +29°C° 0 mm 4 mps 752 mmHg 60%
    18:00 +28°C° 0 mm 4 mps 753 mmHg 66%
    19:00 +26°C° 0 mm 4 mps 753 mmHg 72%
    20:00 +26°C° 0 mm 3 mps 754 mmHg 74%
    21:00 +26°C° 0 mm 3 mps 754 mmHg 76%
    22:00 +25°C° 0 mm 3 mps 755 mmHg 78%
    23:00 +25°C° 0 mm 3 mps 754 mmHg 79%

    27 Septiembre, Miércoles

    Tiempo Temperatura Precipitaciones Viento Presión Humedad
    00:00 +25°C° 0 mm 3 mps 754 mmHg 80%
    01:00 +25°C° 0 mm 3 mps 754 mmHg 81%
    02:00 +25°C° 0 mm 2 mps 754 mmHg 81%
    03:00 +25°C° 0 mm 2 mps 754 mmHg 81%
    04:00 +25°C° 0 mm 2 mps 754 mmHg 80%
    05:00 +25°C° 0,1 mm 2 mps 754 mmHg 79%
    06:00 +25°C° 0,1 mm 2 mps 755 mmHg 78%
    07:00 +25°C° 0,1 mm 2 mps 755 mmHg 77%
    08:00 +26°C° 0 mm 1 mps 755 mmHg 72%
    09:00 +28°C° 0 mm 1 mps 755 mmHg 66%
    10:00 +29°C° 0 mm 1 mps 755 mmHg 60%
    11:00 +30°C° 0 mm 2 mps 754 mmHg 54%
    12:00 +32°C° 0 mm 2 mps 754 mmHg 48%
    13:00 +34°C° 0 mm 3 mps 753 mmHg 43%
    14:00 +33°C° 0 mm 4 mps 752 mmHg 46%
    15:00 +32°C° 0 mm 4 mps 752 mmHg 50%
    16:00 +30°C° 0 mm 5 mps 751 mmHg 53%
    17:00 +29°C° 0 mm 4 mps 752 mmHg 59%
    18:00 +28°C° 0 mm 4 mps 753 mmHg 65%
    19:00 +26°C° 0 mm 4 mps 753 mmHg 71%
    20:00 +26°C° 0 mm 4 mps 754 mmHg 73%
    21:00 +26°C° 0 mm 3 mps 754 mmHg 75%
    22:00 +26°C° 0 mm 3 mps 755 mmHg 77%
    23:00 +25°C° 0 mm 3 mps 754 mmHg 78%

    28 Septiembre, Jueves

    Tiempo Temperatura Precipitaciones Viento Presión Humedad
    00:00 +25°C° 0 mm 3 mps 754 mmHg 79%
    01:00 +25°C° 0 mm 3 mps 754 mmHg 81%
    02:00 +25°C° 0 mm 3 mps 754 mmHg 80%
    03:00 +25°C° 0 mm 2 mps 754 mmHg 80%
    04:00 +25°C° 0 mm 2 mps 754 mmHg 80%
    05:00 +25°C° 0 mm 2 mps 754 mmHg 78%
    06:00 +25°C° 0 mm 2 mps 755 mmHg 77%
    07:00 +25°C° 0 mm 2 mps 755 mmHg 75%
    08:00 +26°C° 0 mm 2 mps 755 mmHg 71%
    09:00 +27°C° 0 mm 1 mps 756 mmHg 66%
    10:00 +28°C° 0 mm 1 mps 756 mmHg 61%
    11:00 +29°C° 0 mm 2 mps 755 mmHg 56%
    12:00 +31°C° 0 mm 2 mps 754 mmHg 51%
    13:00 +33°C° 0 mm 3 mps 753 mmHg 46%
    14:00 +33°C° 0 mm 4 mps 753 mmHg 48%
    15:00 +32°C° 0 mm 4 mps 752 mmHg 50%
    16:00 +32°C° 0 mm 5 mps 752 mmHg 52%
    17:00 +29°C° 0 mm 5 mps 752 mmHg 59%
    18:00 +28°C° 0 mm 4 mps 753 mmHg 65%
    19:00 +26°C° 0 mm 4 mps 753 mmHg 72%
    20:00 +26°C° 0 mm 4 mps 754 mmHg 74%
    21:00 +26°C° 0 mm 4 mps 754 mmHg 76%
    22:00 +25°C° 0 mm 3 mps 754 mmHg 78%
    23:00 +25°C° 0 mm 3 mps 754 mmHg 79%
    Mostrar más